Monticello Municipal
Saturday 9:55 PM
Temperature39° (50°/28°)
Dew Point27°
Relative Humidity60
%
Visibility10
mi
Pressure1020.3
mb
Wind Direction
Wind SpeedCalm
Precipitation Today0.00"

Last 30 Observations

Time PresWx Temp DP Feels RH% Vsby Pressure Ceiling Direction Speed 1h Precip
9:35 PM 41° 25° 38°52
%
10
mi
1020.3
mb
12,000
ft
NNE
20°
5
mph
0.00"
9:15 PM 41° 23° 38°48
%
10
mi
1020.3
mb
12,000
ft
NNE
30°
5
mph
0.00"
8:55 PM 41° 23° 48
%
10
mi
1020.7
mb
12,000
ft
Calm 0.00"
8:35 PM 43° 23° 41°45
%
10
mi
1020.3
mb
11,000
ft
N
360°
3
mph
0.00"
8:15 PM 45° 25° 43°45
%
10
mi
1020.3
mb
12,000
ft
N
360°
3
mph
0.00"
7:55 PM 45° 25° 42°45
%
10
mi
1020.3
mb
12,000
ft
N
350°
5
mph
0.00"
7:35 PM 45° 25° 41°45
%
10
mi
1020.3
mb
12,000
ft
NNW
340°
6
mph
0.00"
7:15 PM 46° 25° 43°42
%
10
mi
1020.3
mb
12,000
ft
N
350°
6
mph
0.00"
6:55 PM 48° 23° 46°37
%
10
mi
1020.3
mb
N
360°
5
mph
0.00"
6:35 PM 48° 21° 46°34
%
10
mi
1020.0
mb
N
360°
6
mph
0.00"
6:15 PM 48° 19° 45°32
%
10
mi
1020.0
mb
N
350°
7
mph
0.00"
5:55 PM 50° 18° 27
%
10
mi
1019.7
mb
N
360°
8
mph
0.00"
5:35 PM 50° 19° 30
%
10
mi
1020.0
mb
Variable 7
mph
0.00"
5:15 PM 50° 18° 27
%
10
mi
1020.0
mb
N
10°
8
mph
0.00"
4:55 PM 50° 19° 30
%
10
mi
1020.0
mb
NE
50°
10
mph
0.00"
4:35 PM 50° 10
mi
1020.0
mb
N
10°
6
mph
0.00"
4:15 PM 50° 19° 30
%
10
mi
1020.3
mb
N
10°
10
mph
0.00"
3:55 PM 50° 18° 27
%
10
mi
1020.3
mb
N
10°
8
mph
(G16)
0.00"
3:35 PM 50° 10
mi
1020.7
mb
N
360°
10
mph
0.00"
3:15 PM 50° 10
mi
1021.0
mb
N
360°
8
mph
0.00"
2:55 PM 50° 10
mi
1021.3
mb
N
360°
11
mph
(G20)
0.00"
2:35 PM 50° 21° 32
%
10
mi
1021.3
mb
NE
40°
10
mph
(G18)
0.00"
2:15 PM 48° 21° 43°34
%
10
mi
1021.7
mb
NNE
20°
13
mph
0.00"
1:55 PM 48° 25° 43°40
%
10
mi
1021.7
mb
NNW
340°
11
mph
0.00"
1:35 PM 48° 25° 43°40
%
10
mi
1022.0
mb
NNE
30°
11
mph
(G20)
0.00"
1:15 PM 46° 28° 41°49
%
10
mi
1022.4
mb
N
350°
13
mph
0.00"
12:55 PM 45° 30° 39°57
%
10
mi
1022.4
mb
NNW
340°
11
mph
0.00"
12:35 PM 43° 32° 38°65
%
10
mi
1022.7
mb
N
350°
8
mph
(G15)
0.00"
12:15 PM 43° 32° 36°65
%
10
mi
1022.4
mb
NNW
340°
14
mph
0.00"
11:55 AM 41° 32° 33°70
%
10
mi
1022.7
mb
N
350°
14
mph
(G21)
0.00"